Weather History for KHND - August, 2014

Change the Weather History Date:

Tuesday, August 12, 2014

  Actual Average (KLAS) Record (KLAS)
Temperature  
Mean Temperature 84 °F 91 °F  
Max Temperature 93 °F 103 °F 115 °F (1937)
Min Temperature 75 °F 80 °F 60 °F (1949)
Degree Days  
Heating Degree Days 0 0  
Month to date heating degree days 0  
Since 1 June heating degree days 1  
Since 1 July heating degree days 0  
Cooling Degree Days 19 26  
Month to date cooling degree days 323  
Year to date cooling degree days 2377  
Since 1 June cooling degree days 1827  
Growing Degree Days 34 (Base 50)    
Moisture  
Dew Point 59 °F    
Average Humidity 43    
Maximum Humidity 52    
Minimum Humidity 29    
Precipitation  
Precipitation 0.00 in 0.01 in 1.56 in (1979)
Month to date precipitation 0.14  
Year to date precipitation 2.62  
Snow  
Snow 0.00 in 0.00 in 0.00 in ()
Month to date snowfall 0.0  
Since 1 June snowfall 0.0  
Since 1 July snowfall 0.0  
Snow Depth -    
Sea Level Pressure  
Sea Level Pressure 29.93 in    
Wind  
Wind Speed 6 mph (South)    
Max Wind Speed 17 mph    
Max Gust Speed -    
Visibility 10 miles    
Events      
T = Trace of Precipitation, MM = Missing Value Source: NWS Daily Summary

Daily Weather History Graph

Daily Weather History Graph

Search for Another Location

Airport or City:

Trip Planner

Search our weather history database for the weather conditions in past years. The results will help you decide how hot, cold, wet, or windy it might be!

Date:

Astronomy

Aug. 12, 2014 Rise Set
Actual Time 5:56 AM PDT 7:33 PM PDT
Civil Twilight 5:29 AM PDT 8:01 PM PDT
Nautical Twilight 4:56 AM PDT 8:34 PM PDT
Astronomical Twilight 4:21 AM PDT 9:08 PM PDT
Moon 8:51 PM PDT (8/12) 8:13 AM PDT (8/12)
Length of Visible Light 14h 31m
Length of Day
13h 37m
Waning Gibbous, 94% of the Moon is Illuminated
Aug 12
Waning Gibbous
Aug 17
Last Quarter
Aug 25
New
Sep 2
First Quarter
Sep 8
Full

Hourly Weather History & Observations

Time (PDT) Temp. Heat Index Dew Point Humidity Pressure Visibility Wind Dir Wind Speed Gust Speed Precip Events Conditions
12:56 AM 81.0 °F 81.0 °F 56.8 °F 44% 29.98 in 10.0 mi North 6.9 mph - N/A   Partly Cloudy
1:56 AM 79.9 °F - 56.8 °F 45% 29.97 in 10.0 mi NNW 4.6 mph - N/A   Clear
2:56 AM 77.0 °F - 57.9 °F 52% 29.97 in 10.0 mi SSW 3.5 mph - N/A   Clear
3:56 AM 77.0 °F - 57.9 °F 52% 29.96 in 10.0 mi South 5.8 mph - N/A   Clear
4:56 AM 77.0 °F - 56.8 °F 50% 29.97 in 10.0 mi SSE 6.9 mph - N/A   Clear
5:56 AM 75.9 °F - 56.8 °F 51% 29.97 in 10.0 mi SSE 4.6 mph - N/A   Clear
6:56 AM 79.0 °F - 57.9 °F 48% 29.99 in 10.0 mi Calm Calm - N/A   Clear
7:56 AM 81.9 °F 81.8 °F 57.9 °F 44% 29.99 in 10.0 mi Calm Calm - N/A   Partly Cloudy
10:56 AM 90.0 °F 88.1 °F 55.9 °F 31% 29.98 in 10.0 mi Variable 4.6 mph - N/A   Clear
11:56 AM 90.9 °F 89.4 °F 56.8 °F 32% 29.97 in 10.0 mi Calm Calm - N/A   Clear
1:56 PM 93.9 °F 92.6 °F 56.8 °F 29% 29.91 in 10.0 mi SSE 9.2 mph - N/A   Clear
2:56 PM 93.9 °F 92.6 °F 56.8 °F 29% 29.88 in 10.0 mi Calm Calm - N/A   Clear
3:56 PM 93.9 °F 92.6 °F 56.8 °F 29% 29.87 in 10.0 mi Calm Calm - N/A   Clear
4:56 PM 90.9 °F 90.3 °F 59.9 °F 35% 29.87 in 10.0 mi SSW 12.7 mph - N/A   Clear
5:56 PM 88.9 °F 88.5 °F 59.9 °F 38% 29.85 in 10.0 mi SSW 6.9 mph - N/A   Clear
6:56 PM 82.9 °F 84.2 °F 63.9 °F 52% 29.89 in 10.0 mi South 17.3 mph - 0.00 in   Mostly Cloudy
7:56 PM 83.8 °F 84.1 °F 61.0 °F 46% 29.88 in 10.0 mi South 10.4 mph - N/A   Clear
8:56 PM 82.9 °F 83.7 °F 61.9 °F 49% 29.89 in 10.0 mi SW 11.5 mph - N/A   Clear
9:56 PM 81.9 °F 82.8 °F 61.9 °F 51% 29.91 in 10.0 mi SSW 15.0 mph - N/A   Clear
10:56 PM 82.9 °F 83.7 °F 61.9 °F 49% 29.91 in 10.0 mi South 15.0 mph - N/A   Clear
11:56 PM 81.9 °F 82.8 °F 61.9 °F 51% 29.90 in 10.0 mi SW 10.4 mph - N/A   Clear